Hourly Weather Bolshoe Churaevo

Today, 1 August, Sunday

Time Temperature Precipitation Wind Pressure Humidity
00:00 +27°C° 0 mm 1 mps 738 mmHg 38%
01:00 +27°C° 0 mm 1 mps 738 mmHg 38%
02:00 +26°C° 0 mm 1 mps 738 mmHg 41%
03:00 +25°C° 0 mm 1 mps 738 mmHg 44%
04:00 +24°C° 0 mm 1 mps 739 mmHg 48%
05:00 +26°C° 0 mm 1 mps 739 mmHg 46%
06:00 +27°C° 0 mm 2 mps 739 mmHg 45%
07:00 +28°C° 0 mm 2 mps 739 mmHg 43%
08:00 +30°C° 0 mm 3 mps 739 mmHg 39%
09:00 +33°C° 0 mm 4 mps 739 mmHg 36%
10:00 +34°C° 0 mm 5 mps 739 mmHg 33%
11:00 +35°C° 0 mm 5 mps 739 mmHg 31%
12:00 +36°C° 0 mm 6 mps 739 mmHg 29%
13:00 +38°C° 0 mm 6 mps 739 mmHg 26%
14:00 +36°C° 0 mm 5 mps 739 mmHg 29%
15:00 +35°C° 0 mm 5 mps 738 mmHg 31%
16:00 +34°C° 0 mm 4 mps 738 mmHg 34%
17:00 +33°C° 0.1 mm 3 mps 739 mmHg 38%
18:00 +30°C° 0.1 mm 2 mps 739 mmHg 41%
19:00 +29°C° 0.1 mm 2 mps 739 mmHg 45%
20:00 +28°C° 0 mm 2 mps 739 mmHg 46%
21:00 +26°C° 0 mm 2 mps 739 mmHg 47%
22:00 +25°C° 0 mm 2 mps 740 mmHg 48%
23:00 +24°C° 0 mm 2 mps 740 mmHg 48%

Tomorrow, 2 August, Monday

Time Temperature Precipitation Wind Pressure Humidity
00:00 +24°C° 0 mm 1 mps 740 mmHg 48%
01:00 +23°C° 0 mm 1 mps 740 mmHg 47%
02:00 +23°C° 0 mm 1 mps 740 mmHg 49%
03:00 +23°C° 0 mm 1 mps 740 mmHg 50%
04:00 +22°C° 0 mm 1 mps 740 mmHg 51%
05:00 +22°C° 0 mm 0 mps 740 mmHg 48%
06:00 +24°C° 0 mm 0 mps 741 mmHg 44%
07:00 +25°C° 0 mm 0 mps 741 mmHg 41%
08:00 +29°C° 0 mm 1 mps 741 mmHg 36%
09:00 +31°C° 0 mm 2 mps 741 mmHg 31%
10:00 +34°C° 0 mm 2 mps 741 mmHg 26%
11:00 +35°C° 0 mm 3 mps 741 mmHg 24%
12:00 +36°C° 0 mm 3 mps 740 mmHg 23%
13:00 +37°C° 0 mm 4 mps 740 mmHg 21%
14:00 +37°C° 0 mm 4 mps 740 mmHg 20%
15:00 +38°C° 0 mm 4 mps 740 mmHg 19%
16:00 +39°C° 0 mm 5 mps 739 mmHg 18%
17:00 +36°C° 0 mm 4 mps 739 mmHg 22%
18:00 +35°C° 0 mm 3 mps 739 mmHg 25%
19:00 +33°C° 0 mm 3 mps 739 mmHg 29%
20:00 +30°C° 0 mm 3 mps 740 mmHg 33%
21:00 +28°C° 0 mm 2 mps 740 mmHg 38%
22:00 +26°C° 0 mm 2 mps 740 mmHg 43%
23:00 +25°C° 0 mm 2 mps 740 mmHg 44%

Day after tomorrow, 3 August, Tuesday

Time Temperature Precipitation Wind Pressure Humidity
00:00 +24°C° 0 mm 2 mps 740 mmHg 46%
01:00 +24°C° 0 mm 3 mps 740 mmHg 47%
02:00 +23°C° 0 mm 2 mps 740 mmHg 48%
03:00 +23°C° 0 mm 2 mps 740 mmHg 49%
04:00 +23°C° 0 mm 2 mps 740 mmHg 50%
05:00 +24°C° 0 mm 1 mps 741 mmHg 47%
06:00 +26°C° 0 mm 1 mps 741 mmHg 44%
07:00 +27°C° 0 mm 1 mps 741 mmHg 40%
08:00 +30°C° 0 mm 1 mps 741 mmHg 36%
09:00 +32°C° 0 mm 1 mps 741 mmHg 31%
10:00 +34°C° 0 mm 1 mps 741 mmHg 27%
11:00 +35°C° 0 mm 1 mps 740 mmHg 25%
12:00 +37°C° 0 mm 1 mps 740 mmHg 22%
13:00 +39°C° 0 mm 1 mps 740 mmHg 20%
14:00 +39°C° 0 mm 1 mps 740 mmHg 19%
15:00 +39°C° 0 mm 1 mps 739 mmHg 19%
16:00 +39°C° 0 mm 1 mps 739 mmHg 18%
17:00 +37°C° 0 mm 2 mps 739 mmHg 22%
18:00 +36°C° 0 mm 2 mps 739 mmHg 25%
19:00 +34°C° 0 mm 2 mps 739 mmHg 29%
20:00 +31°C° 0 mm 2 mps 739 mmHg 31%
21:00 +30°C° 0 mm 2 mps 739 mmHg 33%
22:00 +28°C° 0 mm 1 mps 739 mmHg 35%
23:00 +28°C° 0 mm 1 mps 739 mmHg 36%

4 August, Wednesday

Time Temperature Precipitation Wind Pressure Humidity
00:00 +27°C° 0 mm 1 mps 739 mmHg 37%
01:00 +27°C° 0 mm 1 mps 739 mmHg 38%
02:00 +26°C° 0 mm 1 mps 739 mmHg 39%
03:00 +25°C° 0 mm 1 mps 739 mmHg 40%
04:00 +25°C° 0 mm 1 mps 739 mmHg 42%
05:00 +26°C° 0 mm 1 mps 739 mmHg 39%
06:00 +28°C° 0 mm 1 mps 739 mmHg 36%
07:00 +29°C° 0 mm 1 mps 739 mmHg 34%
08:00 +32°C° 0 mm 1 mps 739 mmHg 29%
09:00 +35°C° 0 mm 2 mps 739 mmHg 25%
10:00 +38°C° 0 mm 2 mps 739 mmHg 20%
11:00 +39°C° 0 mm 3 mps 739 mmHg 18%
12:00 +40°C° 0 mm 3 mps 739 mmHg 16%
13:00 +42°C° 0 mm 4 mps 738 mmHg 14%
14:00 +40°C° 0 mm 3 mps 738 mmHg 15%
15:00 +39°C° 0 mm 3 mps 738 mmHg 17%
16:00 +38°C° 0 mm 2 mps 738 mmHg 18%
17:00 +36°C° 0 mm 3 mps 738 mmHg 23%
18:00 +34°C° 0 mm 4 mps 738 mmHg 28%
19:00 +32°C° 0 mm 5 mps 738 mmHg 32%
20:00 +30°C° 0 mm 5 mps 738 mmHg 33%
21:00 +29°C° 0 mm 4 mps 738 mmHg 35%
22:00 +29°C° 0 mm 4 mps 738 mmHg 36%
23:00 +28°C° 0 mm 3 mps 738 mmHg 36%

5 August, Thursday

Time Temperature Precipitation Wind Pressure Humidity
00:00 +27°C° 0 mm 3 mps 737 mmHg 36%
01:00 +27°C° 0 mm 2 mps 737 mmHg 37%
02:00 +26°C° 0 mm 2 mps 737 mmHg 38%
03:00 +26°C° 0 mm 1 mps 737 mmHg 39%
04:00 +26°C° 0 mm 1 mps 737 mmHg 40%
05:00 +27°C° 0 mm 1 mps 737 mmHg 38%
06:00 +28°C° 0 mm 1 mps 737 mmHg 36%
07:00 +30°C° 0 mm 1 mps 737 mmHg 33%
08:00 +32°C° 0 mm 1 mps 737 mmHg 29%
09:00 +34°C° 0 mm 1 mps 737 mmHg 25%
10:00 +34°C° 0 mm 0 mps 737 mmHg 22%
11:00 +37°C° 0 mm 1 mps 737 mmHg 19%
12:00 +40°C° 0 mm 3 mps 736 mmHg 16%
13:00 +42°C° 0 mm 4 mps 736 mmHg 13%
14:00 +41°C° 0 mm 5 mps 736 mmHg 14%
15:00 +40°C° 0 mm 6 mps 736 mmHg 16%
16:00 +39°C° 0 mm 8 mps 736 mmHg 18%
17:00 +36°C° 0 mm 7 mps 736 mmHg 24%
18:00 +34°C° 0 mm 6 mps 736 mmHg 30%
19:00 +30°C° 0 mm 5 mps 736 mmHg 37%
20:00 +28°C° 0 mm 5 mps 736 mmHg 44%
21:00 +26°C° 0 mm 4 mps 737 mmHg 52%
22:00 +24°C° 0 mm 3 mps 737 mmHg 59%
23:00 +22°C° 0.2 mm 3 mps 737 mmHg 63%

6 August, Friday

Time Temperature Precipitation Wind Pressure Humidity
00:00 +22°C° 0.2 mm 3 mps 737 mmHg 66%
01:00 +21°C° 0.2 mm 2 mps 737 mmHg 70%
02:00 +20°C° 0.1 mm 2 mps 737 mmHg 73%
03:00 +19°C° 0.1 mm 2 mps 737 mmHg 76%
04:00 +20°C° 0.1 mm 1 mps 737 mmHg 80%
05:00 +19°C° 0 mm 2 mps 737 mmHg 77%
06:00 +20°C° 0 mm 3 mps 737 mmHg 74%
07:00 +21°C° 0 mm 3 mps 737 mmHg 72%
08:00 +24°C° 0 mm 3 mps 737 mmHg 61%
09:00 +27°C° 0 mm 4 mps 737 mmHg 51%
10:00 +29°C° 0 mm 4 mps 737 mmHg 41%
11:00 +30°C° 0 mm 4 mps 737 mmHg 36%
12:00 +33°C° 0 mm 4 mps 737 mmHg 30%
13:00 +34°C° 0 mm 4 mps 737 mmHg 25%
14:00 +34°C° 0 mm 5 mps 737 mmHg 24%
15:00 +34°C° 0 mm 5 mps 737 mmHg 23%
16:00 +34°C° 0 mm 5 mps 737 mmHg 22%
17:00 +33°C° 0 mm 5 mps 737 mmHg 25%
18:00 +30°C° 0 mm 5 mps 737 mmHg 28%
19:00 +29°C° 0 mm 4 mps 737 mmHg 31%
20:00 +27°C° 0 mm 4 mps 738 mmHg 39%
21:00 +25°C° 0 mm 4 mps 738 mmHg 46%
22:00 +22°C° 0 mm 4 mps 738 mmHg 54%
23:00 +21°C° 0 mm 4 mps 739 mmHg 59%
Show more

We Need Your Consent

Meteoprog and our Service Providers may store and access personal data such as cookies, device identifiers or other similar technologies on your device and process such data to personalise content and ads, as well as provide social media features and to analyse the traffic.

  • Store and/or access information on your device

    Cookies, device identifiers or other information can be stored or accessed on your device for the purposes indicated above.

  • Personalised ads and content, ad and content measurement, audience insights, and products development

    Ads and content can be personalised based on a profile. More data can be added to better personalise ads and content. Ad and content performance can be measured. Insights about the audience who saw the ads and content can be derived. Such data can be used to develop or improve user’s experience, systems and software.

By clicking ‘I Agree’ you will allow the use of indicated cookies, device identifiers, web beacons or other similar technologies. Your settings can be changed in the browser on your device.

For certain purposes, legitimate interests may be relied on, rather than consent. You can read more about this in our Privacy and Cookie Policy.